Погода в Кингстон-апон-Халл

Великобритания     53°45′42″N   0°17′56″E
темп.,
°C
ветер,
м/с
пор.,
м/с
влажн.,
%
обл.,
%
осадки,
мм/ч
давл.,
гПа
погр.,
м
24 мая, вт
вт2401:00+8з3893100 0.7 998181
04:00+9з4987100 0.1 998291
07:00+10з5983100 0.2 1000516
10:00+13зсз566955 0.3 10011170
13:00+15з576287 2.3 10031772
16:00+15зсз686914 2.2 10041572
19:00+13з59785 3.5 1005823
22:00+9зюз410845 0.0 1007280
25 мая, ср
ср2501:00+8юз398614 0.0 1008177
04:00+8юз41091100 0.0 1008225
07:00+10юз51286100 0.0 1008551
10:00+12ююз71375100 0.0 1007993
13:00+14юз71281100 0.1 10071172
16:00+17з81258100 0.3 10081646
19:00+15з71267100 0.3 10101269
22:00+13з61264100 0.0 1013910
26 мая, чт
чт2601:00+10зюз411760 0.0 1015442
04:00+9зюз5128660 0.0 1016491
07:00+11юз51278100 0.0 1016440
10:00+13юз61386100 0.1 1016931
13:00+14зюз61282100 0.1 10161094
16:00+13з51292100 0.6 1016965
19:00+14з612792 0.8 10171202
22:00+11з5117628 0.1 1019601
27 мая, пт
пт2701:00+8з5117987 0.1 1020458
04:00+7зюз5128960 0.0 1021539
07:00+9з71373100 0.0 1021923
10:00+13зсз9126162 0.0 10221325
13:00+14зсз8125760 0.0 10231630
16:00+15з8115566 0.0 10231661
19:00+14зсз8136179 0.0 10231490
22:00+11зсз612665 0.0 1024715
28 мая, сб
сб2801:00+8зсз512775 0.0 1025382
04:00+6зсз498745 0.0 1025199
07:00+9сз46758 0.0 1026251
10:00+14ссз345975 0.0 10261118
13:00+15ссв445697 0.0 10261227
16:00+14св445962 0.0 1026806
19:00+12всв346222 0.0 1026482
22:00+10всв1171100 0.0 102764